#timestamp,LO_Frequency,Hit,StdDev 
1606611615.0,286047000.8,N
1606611615.9,286047000.8,N
1606611635.7,286046998.1,N
1606611655.6,286046999.7,N
1606611675.4,286047004.3,Y
1606611695.3,286046999.8,P
1606611715.1,286047002.8,P
1606611735.8,286047001.9,N
1606611755.7,286047003.6,N
1606611775.5,286047003.5,N
1606611795.3,286047003.1,N
1606611815.2,286047004.1,N
1606611835.0,286047005.9,Y
1606611835.9,286047005.9,P
1606611855.8,286047002.3,N
1606611875.6,286047002.1,N
1606611895.4,286047004.1,N
1606611915.3,286047002.6,N
1606611935.1,286047001.3,N
1606611955.9,286047003.1,N
1606611975.7,286047011.9,Y
1606611995.5,286047001.1,P
1606612015.4,286046999.5,N
1606612035.2,286046997.3,N
1606612055.0,286046997.7,N
1606612055.9,286046997.7,N
1606612075.8,286046996.7,N
1606612095.6,286046996.9,N
1606612115.5,286046997.8,N
1606612135.3,286046997.1,N
1606612155.1,286046998.3,N
1606612175.9,286046998.8,N
1606612195.7,286046996.9,N
1606612215.5,286046998.5,N
1606612235.4,286046998.2,N
1606612255.2,286046999.1,N
1606612275.0,286046996.5,N
1606612276.0,286046996.5,N
1606612295.8,286046996.6,N
1606612315.6,286046998.6,N
1606612335.5,286046999.6,N
1606612355.3,286046996.7,N
1606612375.1,286046999.3,N
1606612395.9,286047000.8,N
1606612415.7,286047001.0,N
1606612435.5,286047000.4,N
1606612455.4,286047001.2,N
1606612475.2,286047000.3,N
1606612495.1,286047000.2,N
1606612496.0,286047000.2,N
1606612515.8,286047000.5,N
1606612535.6,286047002.8,N
1606612555.5,286047003.6,N
1606612575.3,286047001.3,N
1606612595.1,286047002.5,N
1606612615.9,286047001.6,N
1606612635.7,286047000.8,N
1606612655.6,286046998.1,N
1606612675.4,286047000.8,N
1606612695.2,286047001.2,N
1606612715.1,286046999.5,N
1606612716.0,286046999.5,N
1606612735.8,286046999.1,N
1606612755.6,286046998.9,N
1606612775.5,286047000.4,N
1606612795.3,286047000.7,N
1606612815.2,286047000.7,N
1606612835.9,286046999.9,N
1606612855.7,286047000.3,N
1606612875.6,286047002.1,N
1606612895.4,286047002.7,N
1606612915.2,286046998.7,N
1606612935.1,286046998.8,N
1606612936.0,286046998.8,N
1606612955.8,286046998.6,N
1606612975.7,286046998.1,N
1606612995.5,286047001.2,N
1606613015.3,286046999.5,N
1606613035.2,286047000.5,N
1606613055.0,286046999.8,N
1606613055.9,286046999.8,N
1606613075.7,286047000.7,N
1606613095.6,286047002.6,N
1606613115.4,286047000.5,N
1606613135.3,286047000.1,N
1606613155.1,286046999.8,N
1606613156.0,286046999.8,N
1606613175.8,286046999.9,N
1606613195.7,286046999.9,N
1606613215.5,286047001.4,N
1606613235.3,286047001.9,N
1606613255.2,286047003.3,N
1606613275.0,286047004.3,Y
1606613275.9,286047004.3,P
1606613295.8,286047004.2,N
1606613315.6,286047002.5,N
1606613335.4,286047001.9,N
1606613355.3,286047001.5,N
1606613375.1,286047000.3,N
1606613395.9,286047002.8,N
1606613415.7,286047002.3,N
1606613435.5,286047003.8,N
1606613455.4,286047002.0,N
1606613475.2,286047002.7,N
1606613495.0,286047003.8,N
1606613495.9,286047003.8,N
1606613515.8,286047002.5,N
1606613535.6,286047001.6,N
1606613555.5,286047000.3,N
1606613575.3,286047002.7,N
1606613595.1,286047002.4,N
1606613615.9,286047001.7,N
1606613635.7,286047002.8,N
1606613655.5,286047002.4,N
1606613675.4,286047001.9,N
1606613695.2,286046999.8,N
1606613715.0,286047002.6,N
1606613716.0,286047002.6,N
1606613735.8,286047000.2,N
1606613755.6,286047000.1,N
1606613775.5,286047002.8,N
1606613795.3,286046999.7,N
1606613815.1,286047002.4,N
1606613835.9,286047002.8,N
1606613855.7,286046998.2,N
1606613875.5,286047001.1,N
1606613895.4,286046999.8,N
1606613915.2,286047000.4,N
1606613935.1,286046999.8,N
1606613936.0,286046999.8,N
1606613955.8,286047000.1,N
1606614005.7,286047000.0,E
1606614015.6,286047000.1,N
1606614035.4,286047002.2,P
1606614055.3,286047002.2,N
1606614075.1,286047001.6,N
1606614076.0,286047001.6,N
1606614095.8,286047000.5,N
1606614115.7,286047001.2,N
1606614135.5,286046997.0,Y
1606614155.4,286046995.3,P
1606614175.2,286046997.3,N
1606614195.0,286046995.4,N
1606614195.9,286046995.4,N
1606614215.8,286046994.5,N
1606614235.6,286046994.5,N
1606614255.4,286046993.3,N
1606614275.3,286046996.0,N
1606614295.1,286046996.0,N
1606614315.9,286046996.1,N
1606614335.7,286046996.3,N
1606614355.5,286046996.2,N
1606614375.4,286046996.4,N
1606614395.2,286046995.2,N
1606614415.0,286046999.4,N
1606614415.9,286046999.4,N
1606614435.8,286046996.7,N
1606614455.6,286046997.2,N
1606614475.5,286046993.5,Y
1606614495.3,286046998.9,P
1606614515.1,286046996.5,N
1606614535.9,286046998.8,N
1606614555.7,286046996.5,N
1606614575.5,286046997.3,N
1606614595.4,286046995.2,Y
1606614615.2,286046999.6,P
1606614635.0,286046999.2,N
1606614636.0,286046999.2,N
1606614655.8,286047000.9,N
1606614675.6,286047001.0,N
1606614695.5,286046998.1,N
1606614715.3,286046996.5,N
1606614735.1,286046997.3,N
1606614755.9,286046997.3,N
1606614775.7,286046995.7,N
1606614795.5,286046995.7,N
1606614815.4,286046995.7,N
1606614835.2,286046995.2,N
1606614855.1,286046995.3,N
1606614856.0,286046995.3,N
1606614875.8,286046997.2,N
1606614895.6,286046995.1,N
1606614915.5,286047000.6,N
1606614935.3,286046998.3,N
1606614955.1,286046998.3,N
1606614975.9,286046998.8,N
1606614995.7,286046998.2,N
1606615015.6,286046998.9,N
1606615035.4,286046996.9,N
1606615055.2,286046996.9,N
1606615075.1,286046996.8,N
1606615076.0,286046996.8,N
1606615095.8,286046998.0,N
1606615115.6,286046997.9,N
1606615135.5,286046995.1,N
1606615155.3,286046997.9,N
1606615175.2,286046997.6,N
1606615195.9,286046995.4,N
